Content
SEND FEEDBACK

Daily
Averages
Monthly
Summary
Belgium

OOSTENDE, BELGIUM


Home > Europe > Belgium
Elevation: 16 feet     Latitude: 51 12N     Longitude: 002 52E

WEATHER
 
SELECT A DAY
Number of Records: 314,696;   Date Range: 7/1/96 - 9/30/14
 
SHARE

PRINT THIS DATA

[ ← Previous Day ]
WEATHER ALMANAC - JANUARY 31, 2013
[ Next Day → ]
[ °C ]   °F
Weather ElementAverageHighLow
Temperature46 °F50 °F (12:20 pm)42.8 °F (5:20 am)
Dewpoint40.5 °F44 °F (1:00 pm)37.4 °F (8:50 am)
Humidity79.9 %93 % (10:50 am)70 % (4:00 pm)
Barometer29.93 in30.07 in (4:00 am)29.86 in (10:50 am)
Wind Speed21.1 mph29.9 mph (1:50 pm)
Wind Gust43.7 mph (1:50 pm)
Weather ElementAverage
Visibility6.3 mi
Wind DirectionWSW (234.5 °)

Weather ElementTotal
Precipitation---
Heating Degree Days18.6 (Base 65)
Averaged from 55 records on January 31, 2013
WEATHER CONDITIONS BREAKOUT
WIND DIRECTION BREAKOUT
WEATHER BY HOUR - JANUARY 31, 2013
[ °C ]   °F
Local TimeTemperatureDewpointHumidityBarometerVisibilityWind DirectionWind SpeedGust SpeedPrecipitationEventsConditions
12:50 AM46.4 °F39.2 °F76 %30.06 inWSW (250°)20.7 mphClear
1:00 AM46.0 °F40.0 °F72 %30.06 in7.0 miWSW (250°)20.1 mphClear
1:20 AM46.4 °F39.2 °F76 %30.06 inWSW (250°)21.9 mph34.5 mphClear
1:50 AM44.6 °F39.2 °F81 %30.06 inWSW (250°)19.6 mphClear
2:20 AM44.6 °F39.2 °F81 %30.06 inWSW (250°)18.4 mphClear
2:50 AM44.6 °F39.2 °F81 %30.06 inWSW (250°)18.4 mphClear
3:20 AM44.6 °F39.2 °F81 %30.06 inWSW (250°)18.4 mphClear
3:50 AM44.6 °F39.2 °F81 %30.06 inWSW (250°)18.4 mphClear
4:00 AM45.0 °F40.0 °F76 %30.07 in7.0 miWSW (250°)17.9 mphPartly Cloudy
4:20 AM44.6 °F41.0 °F87 %30.04 inWSW (240°)16.1 mphClear
4:50 AM44.6 °F39.2 °F81 %30.01 inSW (220°)15.0 mphClear
5:20 AM42.8 °F39.2 °F87 %30.01 inSouth (190°)8.1 mphClear
5:50 AM42.8 °F39.2 °F87 %30.01 inSSW (200°)12.7 mphClear
6:20 AM44.6 °F39.2 °F81 %29.98 in6.2 miSSW (200°)16.1 mphScattered Clouds
6:50 AM44.6 °F39.2 °F81 %29.98 in6.2 miSouth (190°)13.8 mphPartly Cloudy
7:00 AM44.0 °F40.0 °F80 %29.98 in9.0 miSouth (190°)13.4 mphScattered Clouds
7:20 AM44.6 °F39.2 °F81 %29.95 in6.2 miSouth (190°)13.8 mphPartly Cloudy
7:50 AM42.8 °F39.2 °F87 %29.92 in6.2 miSouth (190°)15.0 mphPartly Cloudy
8:20 AM42.8 °F39.2 °F87 %29.89 inSouth (190°)16.1 mphClear
8:50 AM42.8 °F37.4 °F81 %29.92 in6.2 miSSW (200°)19.6 mphPartly Cloudy
9:20 AM42.8 °F37.4 °F81 %29.89 in6.2 miSSW (210°)20.7 mphRainLight Rain
9:50 AM42.8 °F39.2 °F87 %29.89 in5.0 miSSW (200°)18.4 mphRainLight Rain
10:00 AM44.0 °F39.0 °F77 %29.89 in5.0 miSSW (200°)17.9 mphRainLight Rain
10:20 AM44.6 °F41.0 °F87 %29.89 in6.2 miSSW (210°)23.0 mphMostly Cloudy
10:50 AM44.6 °F42.8 °F93 %29.86 in4.3 miSW (220°)18.4 mphRainLight Rain
11:20 AM46.4 °F42.8 °F87 %29.86 in6.2 miSW (230°)24.2 mphPartly Cloudy
11:50 AM46.4 °F42.8 °F87 %29.86 in6.2 miSW (220°)23.0 mphPartly Cloudy
12:20 PM50.0 °F42.8 °F76 %29.86 in6.2 miWSW (240°)26.5 mph38.0 mphPartly Cloudy
12:50 PM50.0 °F42.8 °F76 %29.86 in6.2 miWSW (240°)27.6 mphPartly Cloudy
1:00 PM50.0 °F44.0 °F72 %29.87 in10.0 miWSW (240°)26.8 mphPartly Cloudy
1:20 PM50.0 °F42.8 °F76 %29.86 in6.2 miWSW (250°)26.5 mph38.0 mphScattered Clouds
1:50 PM50.0 °F42.8 °F76 %29.86 in6.2 miWSW (250°)29.9 mph43.7 mphMostly Cloudy
2:20 PM50.0 °F41.0 °F71 %29.86 in6.2 miWSW (250°)26.5 mphPartly Cloudy
2:50 PM48.2 °F41.0 °F76 %29.86 in5.6 miWSW (250°)26.5 mph40.3 mphPartly Cloudy
3:20 PM48.2 °F41.0 °F76 %29.86 in5.6 miWSW (250°)29.9 mphPartly Cloudy
3:50 PM48.2 °F41.0 °F76 %29.86 in6.2 miWSW (250°)29.9 mphPartly Cloudy
4:00 PM48.0 °F41.0 °F70 %29.88 in7.0 miWSW (250°)29.1 mphScattered Clouds
4:20 PM48.2 °F41.0 °F76 %29.86 inWSW (250°)27.6 mph40.3 mphClear
4:50 PM48.2 °F41.0 °F76 %29.86 inWSW (250°)27.6 mphClear
5:20 PM46.4 °F41.0 °F81 %29.89 inWSW (250°)26.5 mph39.1 mphClear
5:50 PM46.4 °F41.0 °F81 %29.89 in5.6 miWSW (250°)24.2 mph
6:20 PM46.4 °F41.0 °F81 %29.92 in5.6 miWSW (250°)21.9 mph
6:50 PM46.4 °F41.0 °F81 %29.92 in5.6 miWSW (250°)18.4 mph31.1 mph
7:00 PM46.0 °F41.0 °F76 %29.93 in6.0 miWSW (250°)17.9 mphScattered Clouds
7:20 PM46.4 °F39.2 °F76 %29.92 inWSW (240°)17.3 mphClear
7:50 PM46.4 °F39.2 °F76 %29.92 inWSW (250°)20.7 mphClear
8:20 PM46.4 °F41.0 °F81 %29.92 inWSW (250°)20.7 mphClear
8:50 PM46.4 °F41.0 °F81 %29.92 in6.2 miWSW (250°)20.7 mphPartly Cloudy
9:20 PM46.4 °F41.0 °F81 %29.92 in6.2 miWSW (250°)21.9 mphPartly Cloudy
9:50 PM46.4 °F41.0 °F81 %29.92 in6.2 miWSW (250°)21.9 mph34.5 mphPartly Cloudy
10:00 PM46.0 °F41.0 °F75 %29.94 in7.0 miWSW (250°)22.4 mphScattered Clouds
10:20 PM46.4 °F41.0 °F81 %29.92 in6.2 miWSW (250°)24.2 mphPartly Cloudy
10:50 PM46.4 °F41.0 °F81 %29.92 in6.2 miWSW (250°)21.9 mphPartly Cloudy
11:20 PM46.4 °F41.0 °F81 %29.92 in6.2 miWSW (250°)23.0 mphPartly Cloudy
11:50 PM46.4 °F41.0 °F81 %29.92 in6.2 miWSW (250°)20.7 mphPartly Cloudy
Hourly data recorded from EBOS, located miles away from Oostende, Belgium







STORIES FROM OUR PARTNERS